STARLINK-2115 (47394 NORAD) Tracking and Keplerian Element Data

This shows tracking and keplerian element data for the satellite.

Feedback or suggestion? Click here.




ElementValue
Catalog47394
NameSTARLINK-2115
Epoch Orbit1436
Epoch Day106.25002315
Epoch Year2021
RAAN150.7399
Inclination53.0528
Eccentricity0.000413
Argument of Perigee10.59
Mean Anonmoly66.7318
Mean Motion15.62789372
Decay Rate-4.339E-05
L11 47394U 21005AX 21106.25002315 -.00004339 00000-0 -41459-4 0 9991
L22 47394 53.0528 150.7399 0004130 10.5900 66.7318 15.62789372 14364

Live tracking and technical data element details for STARLINK-2115 (NORAD 47394). STARLINK-2115 can be tracked NOW for your location showing map with azimuth and elevation plus other details from your city location.

Track the satellite on the map from your city or location and see movement details for azimuth, elevation, latitude, longitude, range, height, and movement on the map or in text.







IsCatalogInMostPopularTable: catalog: 47394, numindb: 15
Update: records affected: 1



GetName: 47394 STARLINK-2115

Hit Count: updated at: Fri, 16 Apr 2021 10:46:53 GMT